User: anonymous   Login
Location: Unspecified
(0.0000°N, 0.0000°E)
Time: 01:56:02
(UTC+00:00)
Language:

STARLINK-11197 [DTC] - Orbit

View from above orbital plane
View from above orbital plane
View from above satellite
View from above satellite

Ground track
Ground track

The orbit is defined by the following mean orbital elements,

1 60186U          26145.38664867 +.00000000 +00000-0 +10823-4 0 00008
2 60186  53.1583 142.9173 0001014  78.4576 281.6556 15.69711974    01
Epoch (UTC): 25 May 2026 09:16:46
Eccentricity: 0.0001014
inclination: 53.1583°
perigee height: 359 km
apogee height: 360 km
right ascension of ascending node: 142.9173°
argument of perigee: 78.4576°
revolutions per day: 15.69711974
mean anomaly at epoch: 281.6556°

The dashed part of the orbit path shows where the satellite is in the earth's shadow,  

DLR